GW4484 Weather Reports


time (UTC)temp
C
wind
direction
speed
KPH
gust
KPH
rain 1hr
cm
rain 24hr
cm
rain mn
cm
humidity
%
barometer
mb
20260507161558 17 240 3.2 9.7 0.00 0.00 0.00 77 1017.0
20260507160113 16 215 3.2 9.7 0.00 0.00 0.00 79 1017.1
20260507154553 17 227 3.2 11.3 0.00 0.00 0.00 78 1017.1
20260507153051 17 264 0.0 6.4 0.00 0.00 0.00 77 1017.0
20260507151558 17 292 1.6 6.4 0.00 0.00 0.00 80 1017.1
20260507150053 16 298 1.6 4.8 0.00 0.00 0.00 82 1017.0
20260507144557 16 251 1.6 4.8 0.00 0.00 0.00 80 1016.8
20260507143113 16 316 0.0 3.2 0.00 0.00 0.00 83 1016.8
20260507141626 14 0 0.0 4.8 0.00 0.00 0.00 87 1016.7
20260507140109 13 0 0.0 3.2 0.00 0.00 0.00 90 1016.7
20260507134616 12 30 0.0 3.2 0.00 0.00 0.00 90 1016.6
20260507133107 12 30 0.0 0.0 0.00 0.00 0.00 90 1016.6
20260507131621 12 0 0.0 3.2 0.00 0.00 0.00 90 1016.5
20260507130109 12 30 0.0 1.6 0.00 0.00 0.00 90 1016.3
20260507124603 12 0 0.0 1.6 0.00 0.00 0.00 90 1016.3
20260507123104 12 0 0.0 1.6 0.00 0.00 0.00 89 1016.2
20260507121559 12 30 0.0 3.2 0.00 0.00 0.00 90 1016.2
20260507120054 12 0 0.0 3.2 0.00 0.00 0.00 89 1016.1
20260507114553 12 0 0.0 1.6 0.00 0.00 0.00 89 1016.2
20260507113131 12 0 0.0 1.6 0.00 0.00 0.00 89 1016.2
20260507111559 12 0 0.0 1.6 0.00 0.00 0.00 88 1016.2
20260507110057 12 0 0.0 1.6 0.00 0.00 0.00 88 1016.3
20260507104606 12 0 0.0 1.6 0.00 0.00 0.00 88 1016.3
20260507103055 12 30 0.0 1.6 0.00 0.00 0.00 88 1016.4
20260507101559 13 0 0.0 0.0 0.00 0.00 0.00 87 1016.4
20260507094601 13 30 0.0 3.2 0.00 0.00 0.00 87 1016.5
20260507093052 13 0 0.0 4.8 0.00 0.00 0.00 86 1016.7
20260507091553 13 0 0.0 3.2 0.00 0.00 0.00 87 1016.8
20260507090054 13 62 0.0 4.8 0.00 0.00 0.00 87 1017.0
20260507084559 13 0 0.0 1.6 0.00 0.00 0.00 86 1017.2
20260507083057 14 0 0.0 1.6 0.00 0.00 0.00 87 1017.3
20260507081552 14 0 0.0 1.6 0.00 0.00 0.00 86 1017.5
20260507080056 15 0 0.0 1.6 0.00 0.00 0.00 86 1017.6
20260507074552 15 0 0.0 3.2 0.00 0.00 0.00 87 1017.6
20260507073058 15 0 0.0 1.6 0.00 0.00 0.00 87 1017.6
20260507071550 15 0 0.0 1.6 0.00 0.00 0.00 86 1017.6
20260507070104 15 0 0.0 3.2 0.00 0.00 0.00 86 1017.6
20260507064553 15 0 0.0 3.2 0.00 0.00 0.00 85 1017.8
20260507063056 15 211 0.0 3.2 0.00 0.00 0.00 84 1017.8
20260507061552 16 211 0.0 3.2 0.00 0.00 0.00 83 1017.7
20260507060053 16 232 1.6 3.2 0.00 0.00 0.00 81 1017.8
20260507054552 16 229 0.0 3.2 0.00 0.00 0.00 81 1017.7
20260507053052 16 282 0.0 4.8 0.00 0.00 0.00 81 1017.8
20260507051559 16 0 1.6 6.4 0.00 0.00 0.00 80 1018.0
20260507050110 16 249 0.0 6.4 0.00 0.00 0.00 80 1017.8
20260507044557 16 246 1.6 4.8 0.00 0.00 0.00 79 1017.8
20260507043054 16 0 1.6 6.4 0.00 0.00 0.00 78 1017.7
20260507041553 16 273 1.6 6.4 0.00 0.00 0.00 78 1017.7
20260507040103 16 260 1.6 11.3 0.00 0.00 0.00 78 1017.5
20260507034559 17 0 1.6 4.8 0.00 0.00 0.00 80 1017.3
20260507033055 17 238 3.2 14.5 0.00 0.00 0.00 80 1017.1
20260507031556 17 271 3.2 11.3 0.00 0.00 0.00 79 1017.0
20260507030056 17 274 1.6 8.0 0.00 0.00 0.00 77 1016.9
20260507024550 17 244 1.6 11.3 0.00 0.00 0.00 75 1016.7
20260507023052 18 282 1.6 11.3 0.00 0.00 0.00 73 1016.7
20260507021559 18 203 4.8 16.1 0.00 0.00 0.00 71 1016.6
20260507020057 18 263 3.2 16.1 0.00 0.00 0.00 69 1016.5
20260507014549 19 253 3.2 17.7 0.00 0.00 0.00 67 1016.4
20260507013053 20 273 4.8 16.1 0.00 0.00 0.00 65 1016.4
20260507011557 20 291 4.8 16.1 0.00 0.00 0.00 63 1016.5
20260507010050 21 212 6.4 16.1 0.00 0.00 0.00 63 1016.4
20260507004550 21 311 3.2 17.7 0.00 0.00 0.00 62 1016.3
20260507003050 20 248 6.4 17.7 0.00 0.00 0.00 62 1016.3
20260507001551 21 194 6.4 17.7 0.00 0.00 0.00 62 1016.1
20260507000054 21 217 8.0 20.9 0.00 0.00 0.00 62 1016.2
20260506234616 21 344 6.4 19.3 0.00 0.00 0.00 62 1016.0
20260506233052 20 191 8.0 22.5 0.00 0.00 0.00 63 1016.0
20260506231549 21 261 8.0 22.5 0.00 0.00 0.00 63 1016.1
20260506230059 20 207 11.3 22.5 0.00 0.00 0.00 66 1016.1
20260506224552 20 273 11.3 20.9 0.00 0.00 0.00 66 1016.2
20260506223100 19 242 12.9 24.1 0.00 0.00 0.00 67 1016.5
20260506221556 20 232 9.7 29.0 0.00 0.00 0.00 64 1016.5
20260506220058 20 196 8.0 20.9 0.00 0.00 0.00 64 1016.7
20260506214555 20 209 8.0 22.5 0.00 0.00 0.00 65 1016.8
20260506213057 20 210 9.7 22.5 0.00 0.00 0.00 65 1016.8
20260506211552 20 202 11.3 22.5 0.00 0.00 0.00 66 1017.1
20260506210054 20 261 6.4 22.5 0.00 0.00 0.00 63 1017.1
20260506204600 20 205 9.7 20.9 0.00 0.00 0.00 64 1017.1
20260506203052 20 195 9.7 22.5 0.00 0.00 0.00 64 1017.2
20260506201557 19 233 12.9 22.5 0.00 0.00 0.00 65 1017.3
20260506200110 20 184 9.7 20.9 0.00 0.00 0.00 65 1017.4
20260506194606 19 211 12.9 20.9 0.00 0.00 0.00 65 1017.5
20260506193055 20 239 9.7 19.3 0.00 0.00 0.00 62 1017.5
20260506191555 20 209 8.0 17.7 0.00 0.00 0.00 62 1017.6
20260506190054 20 289 8.0 19.3 0.00 0.00 0.00 61 1017.7
20260506184605 20 290 6.4 19.3 0.00 0.00 0.00 61 1017.7
20260506183104 22 235 4.8 14.5 0.00 0.00 0.00 55 1017.9
20260506181559 21 286 6.4 16.1 0.00 0.00 0.00 54 1017.9
20260506180051 22 246 4.8 12.9 0.00 0.00 0.00 51 1018.2
20260506174603 21 292 3.2 16.1 0.00 0.00 0.00 55 1018.3
20260506173111 21 254 4.8 14.5 0.00 0.00 0.00 54 1018.3
20260506171600 20 312 3.2 12.9 0.00 0.00 0.00 56 1018.5
20260506170100 20 5 1.6 12.9 0.00 0.00 0.00 58 1018.4
20260506164558 19 279 6.4 12.9 0.00 0.00 0.00 60 1018.5
20260506163056 18 297 1.6 12.9 0.00 0.00 0.00 64 1018.4